Time,TemperatureF,DewpointF,PressureIn,WindDirection,WindDirectionDegrees,WindSpeedMPH,WindSpeedGustMPH,Humidity,HourlyPrecipIn,Conditions,Clouds,dailyrainin,SoftwareType,DateUTC
2013-03-13 00:00:00,23.3,18.9,30.37,NNW,342,1.0,18.0,83,0.00,,,0.00,Wunderground v.1.15,2013-03-13 05:00:00,
2013-03-13 00:05:00,23.1,18.4,30.38,NNW,341,1.0,18.0,82,0.00,,,0.00,Wunderground v.1.15,2013-03-13 05:05:00,
2013-03-13 00:10:00,22.7,18.0,30.38,NNW,341,1.0,18.0,82,0.00,,,0.00,Wunderground v.1.15,2013-03-13 05:10:00,
2013-03-13 00:20:00,22.3,18.2,30.38,NNW,342,1.0,18.0,84,0.00,,,0.00,Wunderground v.1.15,2013-03-13 05:20:00,
2013-03-13 00:30:00,22.1,17.7,30.38,NNW,340,2.0,18.0,83,0.00,,,0.00,Wunderground v.1.15,2013-03-13 05:30:00,
2013-03-13 00:35:00,21.7,17.3,30.38,NNW,340,2.0,18.0,83,0.00,,,0.00,Wunderground v.1.15,2013-03-13 05:35:00,
2013-03-13 00:40:00,21.3,16.9,30.38,NNW,340,2.0,18.0,83,0.00,,,0.00,Wunderground v.1.15,2013-03-13 05:40:00,
2013-03-13 00:45:00,21.0,16.9,30.38,NNW,340,2.0,18.0,84,0.00,,,0.00,Wunderground v.1.15,2013-03-13 05:45:00,
2013-03-13 00:55:00,20.9,17.1,30.38,NNW,340,2.0,4.0,85,0.00,,,0.00,Wunderground v.1.15,2013-03-13 05:55:00,
2013-03-13 01:00:00,20.9,17.4,30.38,NNW,340,2.0,18.0,86,0.00,,,0.00,Wunderground v.1.15,2013-03-13 06:00:00,
2013-03-13 01:05:00,21.4,18.1,30.38,NNW,340,4.0,18.0,87,0.00,,,0.00,Wunderground v.1.15,2013-03-13 06:05:00,
2013-03-13 01:15:00,21.7,18.2,30.38,NNW,339,5.0,18.0,86,0.00,,,0.00,Wunderground v.1.15,2013-03-13 06:15:00,
2013-03-13 01:20:00,21.9,18.4,30.39,NNW,339,5.0,18.0,86,0.00,,,0.00,Wunderground v.1.15,2013-03-13 06:20:00,
2013-03-13 01:25:00,22.2,18.7,30.38,NNW,339,5.0,18.0,86,0.00,,,0.00,Wunderground v.1.15,2013-03-13 06:25:00,
2013-03-13 01:30:00,22.3,18.7,30.38,NNW,339,5.0,18.0,86,0.00,,,0.00,Wunderground v.1.15,2013-03-13 06:30:00,
2013-03-13 01:35:00,22.2,18.4,30.39,NNW,339,5.0,18.0,85,0.00,,,0.00,Wunderground v.1.15,2013-03-13 06:35:00,
2013-03-13 01:40:00,21.9,18.1,30.38,NNW,333,5.0,18.0,85,0.00,,,0.00,Wunderground v.1.15,2013-03-13 06:40:00,
2013-03-13 01:45:00,22.0,18.2,30.38,NNW,330,6.0,18.0,85,0.00,,,0.00,Wunderground v.1.15,2013-03-13 06:45:00,
2013-03-13 01:50:00,21.5,18.0,30.39,NNW,330,6.0,18.0,86,0.00,,,0.00,Wunderground v.1.15,2013-03-13 06:50:00,
2013-03-13 01:55:00,21.6,18.1,30.39,NNW,327,6.0,18.0,86,0.00,,,0.00,Wunderground v.1.15,2013-03-13 06:55:00,
2013-03-13 02:05:00,21.2,17.9,30.39,NNW,327,6.0,18.0,87,0.00,,,0.00,Wunderground v.1.15,2013-03-13 07:05:00,
2013-03-13 02:15:00,21.5,18.8,30.39,NW,323,6.0,18.0,89,0.00,,,0.00,Wunderground v.1.15,2013-03-13 07:15:00,
2013-03-13 02:20:00,21.4,18.7,30.39,NW,322,6.0,18.0,89,0.00,,,0.00,Wunderground v.1.15,2013-03-13 07:20:00,
2013-03-13 02:25:00,21.1,18.1,30.39,NW,321,6.0,18.0,88,0.00,,,0.00,Wunderground v.1.15,2013-03-13 07:25:00,
2013-03-13 02:30:00,20.8,18.1,30.39,NW,321,5.0,5.0,89,0.00,,,0.00,Wunderground v.1.15,2013-03-13 07:30:00,
2013-03-13 02:40:00,19.7,16.7,30.40,NW,321,3.0,3.0,88,0.00,,,0.00,Wunderground v.1.15,2013-03-13 07:40:00,
2013-03-13 02:45:00,19.2,16.5,30.40,NW,321,2.0,18.0,89,0.00,,,0.00,Wunderground v.1.15,2013-03-13 07:45:00,
2013-03-13 02:50:00,18.9,16.2,30.40,NW,321,2.0,2.0,89,0.00,,,0.00,Wunderground v.1.15,2013-03-13 07:50:00,
2013-03-13 02:55:00,18.5,15.8,30.40,NW,321,1.0,18.0,89,0.00,,,0.00,Wunderground v.1.15,2013-03-13 07:55:00,
2013-03-13 03:00:00,18.2,15.5,30.40,NW,321,2.0,2.0,89,0.00,,,0.00,Wunderground v.1.15,2013-03-13 08:00:00,
2013-03-13 03:10:00,18.2,15.8,30.40,NW,321,1.0,18.0,90,0.00,,,0.00,Wunderground v.1.15,2013-03-13 08:10:00,
2013-03-13 03:20:00,18.2,15.8,30.40,NW,321,1.0,1.0,90,0.00,,,0.00,Wunderground v.1.15,2013-03-13 08:20:00,
2013-03-13 03:25:00,18.0,15.6,30.40,NW,321,0.0,18.0,90,0.00,,,0.00,Wunderground v.1.15,2013-03-13 08:25:00,
2013-03-13 03:30:00,17.9,15.5,30.41,NW,321,0.0,18.0,90,0.00,,,0.00,Wunderground v.1.15,2013-03-13 08:30:00,
2013-03-13 03:35:00,17.9,15.5,30.40,NW,321,0.0,18.0,90,0.00,,,0.00,Wunderground v.1.15,2013-03-13 08:35:00,
2013-03-13 03:40:00,17.8,15.6,30.40,NW,321,0.0,18.0,91,0.00,,,0.00,Wunderground v.1.15,2013-03-13 08:40:00,
2013-03-13 03:45:00,17.7,15.5,30.40,NW,321,0.0,18.0,91,0.00,,,0.00,Wunderground v.1.15,2013-03-13 08:45:00,
2013-03-13 03:50:00,17.7,15.5,30.40,NW,321,0.0,18.0,91,0.00,,,0.00,Wunderground v.1.15,2013-03-13 08:50:00,
2013-03-13 04:00:00,17.7,15.5,30.40,NW,321,0.0,18.0,91,0.00,,,0.00,Wunderground v.1.15,2013-03-13 09:00:00,
2013-03-13 04:05:00,17.7,15.5,30.40,NW,321,0.0,18.0,91,0.00,,,0.00,Wunderground v.1.15,2013-03-13 09:05:00,
2013-03-13 04:10:00,17.7,15.5,30.40,NW,321,0.0,18.0,91,0.00,,,0.00,Wunderground v.1.15,2013-03-13 09:10:00,
2013-03-13 04:20:00,17.5,15.1,30.40,NW,321,0.0,18.0,90,0.00,,,0.00,Wunderground v.1.15,2013-03-13 09:20:00,
2013-03-13 04:25:00,17.4,15.2,30.40,NW,321,1.0,18.0,91,0.00,,,0.00,Wunderground v.1.15,2013-03-13 09:25:00,
2013-03-13 04:30:00,17.5,15.3,30.40,NW,321,1.0,1.0,91,0.00,,,0.00,Wunderground v.1.15,2013-03-13 09:30:00,
2013-03-13 04:35:00,17.5,15.3,30.41,NW,321,1.0,18.0,91,0.00,,,0.00,Wunderground v.1.15,2013-03-13 09:35:00,
2013-03-13 04:40:00,17.5,15.3,30.41,NW,321,0.0,18.0,91,0.00,,,0.00,Wunderground v.1.15,2013-03-13 09:40:00,
2013-03-13 04:45:00,17.3,14.9,30.41,NW,321,1.0,18.0,90,0.00,,,0.00,Wunderground v.1.15,2013-03-13 09:45:00,
2013-03-13 04:55:00,17.5,15.3,30.40,NW,321,2.0,18.0,91,0.00,,,0.00,Wunderground v.1.15,2013-03-13 09:55:00,
2013-03-13 05:05:00,18.2,16.0,30.40,NW,321,4.0,18.0,91,0.00,,,0.00,Wunderground v.1.15,2013-03-13 10:05:00,
2013-03-13 05:10:00,18.6,16.4,30.41,NW,322,5.0,5.0,91,0.00,,,0.00,Wunderground v.1.15,2013-03-13 10:10:00,
2013-03-13 05:15:00,18.4,16.0,30.41,NW,322,5.0,18.0,90,0.00,,,0.00,Wunderground v.1.15,2013-03-13 10:15:00,
2013-03-13 05:20:00,18.2,15.8,30.41,NW,322,4.0,4.0,90,0.00,,,0.00,Wunderground v.1.15,2013-03-13 10:20:00,
2013-03-13 05:30:00,17.5,15.1,30.41,NW,322,3.0,3.0,90,0.00,,,0.00,Wunderground v.1.15,2013-03-13 10:30:00,
2013-03-13 05:35:00,17.3,14.9,30.42,NW,322,2.0,18.0,90,0.00,,,0.00,Wunderground v.1.15,2013-03-13 10:35:00,
2013-03-13 05:40:00,17.1,14.9,30.42,NW,322,2.0,2.0,91,0.00,,,0.00,Wunderground v.1.15,2013-03-13 10:40:00,
2013-03-13 05:45:00,16.8,14.4,30.42,NW,322,2.0,18.0,90,0.00,,,0.00,Wunderground v.1.15,2013-03-13 10:45:00,
2013-03-13 05:50:00,16.6,14.2,30.42,NW,322,1.0,18.0,90,0.00,,,0.00,Wunderground v.1.15,2013-03-13 10:50:00,
2013-03-13 06:00:00,16.1,13.9,30.42,NW,322,1.0,18.0,91,0.00,,,0.00,Wunderground v.1.15,2013-03-13 11:00:00,
2013-03-13 06:10:00,16.1,13.9,30.42,NW,322,1.0,18.0,91,0.00,,,0.00,Wunderground v.1.15,2013-03-13 11:10:00,
2013-03-13 06:15:00,16.4,14.5,30.42,NW,322,1.0,18.0,92,0.00,,,0.00,Wunderground v.1.15,2013-03-13 11:15:00,
2013-03-13 06:20:00,16.8,14.9,30.42,NW,322,1.0,18.0,92,0.00,,,0.00,Wunderground v.1.15,2013-03-13 11:20:00,
2013-03-13 06:25:00,17.0,15.1,30.42,NW,322,2.0,18.0,92,0.00,,,0.00,Wunderground v.1.15,2013-03-13 11:25:00,
2013-03-13 06:35:00,18.4,16.7,30.42,NW,322,5.0,18.0,93,0.00,,,0.00,Wunderground v.1.15,2013-03-13 11:35:00,
2013-03-13 06:40:00,18.6,16.4,30.42,NW,322,5.0,5.0,91,0.00,,,0.00,Wunderground v.1.15,2013-03-13 11:40:00,
2013-03-13 06:45:00,18.3,15.9,30.42,NW,322,4.0,18.0,90,0.00,,,0.00,Wunderground v.1.15,2013-03-13 11:45:00,
2013-03-13 06:50:00,17.9,15.2,30.42,NW,323,2.0,18.0,89,0.00,,,0.00,Wunderground v.1.15,2013-03-13 11:50:00,
2013-03-13 06:55:00,17.5,14.8,30.42,NW,323,1.0,18.0,89,0.00,,,0.00,Wunderground v.1.15,2013-03-13 11:55:00,
2013-03-13 07:05:00,16.8,14.1,30.42,NW,323,1.0,18.0,89,0.00,,,0.00,Wunderground v.1.15,2013-03-13 12:05:00,
2013-03-13 07:15:00,16.3,13.9,30.42,NW,323,0.0,18.0,90,0.00,,,0.00,Wunderground v.1.15,2013-03-13 12:15:00,
2013-03-13 07:20:00,16.0,13.6,30.43,NW,323,0.0,18.0,90,0.00,,,0.00,Wunderground v.1.15,2013-03-13 12:20:00,
2013-03-13 07:25:00,15.7,13.3,30.43,NW,323,0.0,18.0,90,0.00,,,0.00,Wunderground v.1.15,2013-03-13 12:25:00,
2013-03-13 07:30:00,15.5,13.1,30.42,NW,323,0.0,18.0,90,0.00,,,0.00,Wunderground v.1.15,2013-03-13 12:30:00,
2013-03-13 07:35:00,15.4,13.0,30.42,NW,323,0.0,18.0,90,0.00,,,0.00,Wunderground v.1.15,2013-03-13 12:35:00,
2013-03-13 07:45:00,15.5,13.3,30.42,NW,323,0.0,18.0,91,0.00,,,0.00,Wunderground v.1.15,2013-03-13 12:45:00,
2013-03-13 07:50:00,15.6,13.4,30.42,NW,323,0.0,18.0,91,0.00,,,0.00,Wunderground v.1.15,2013-03-13 12:50:00,
2013-03-13 07:55:00,15.7,13.8,30.42,NW,323,0.0,18.0,92,0.00,,,0.00,Wunderground v.1.15,2013-03-13 12:55:00,
2013-03-13 08:00:00,15.8,13.9,30.42,NW,323,0.0,18.0,92,0.00,,,0.00,Wunderground v.1.15,2013-03-13 13:00:00,
2013-03-13 08:10:00,16.2,14.3,30.42,NW,323,0.0,18.0,92,0.00,,,0.00,Wunderground v.1.15,2013-03-13 13:10:00,
2013-03-13 08:15:00,16.5,14.6,30.42,NW,323,0.0,18.0,92,0.00,,,0.00,Wunderground v.1.15,2013-03-13 13:15:00,
2013-03-13 08:20:00,16.6,14.7,30.42,NW,323,0.0,18.0,92,0.00,,,0.00,Wunderground v.1.15,2013-03-13 13:20:00,
2013-03-13 08:25:00,16.5,14.3,30.43,NW,323,0.0,18.0,91,0.00,,,0.00,Wunderground v.1.15,2013-03-13 13:25:00,
2013-03-13 08:30:00,16.5,14.3,30.43,NW,323,0.0,18.0,91,0.00,,,0.00,Wunderground v.1.15,2013-03-13 13:30:00,
2013-03-13 08:35:00,16.6,14.7,30.43,NW,323,0.0,18.0,92,0.00,,,0.00,Wunderground v.1.15,2013-03-13 13:35:00,
2013-03-13 08:40:00,16.8,14.9,30.44,NW,323,0.0,18.0,92,0.00,,,0.00,Wunderground v.1.15,2013-03-13 13:40:00,
2013-03-13 08:45:00,17.1,15.2,30.44,NW,323,0.0,18.0,92,0.00,,,0.00,Wunderground v.1.15,2013-03-13 13:45:00,
2013-03-13 08:50:00,17.4,15.5,30.44,NW,323,0.0,18.0,92,0.00,,,0.00,Wunderground v.1.15,2013-03-13 13:50:00,
2013-03-13 08:55:00,17.9,16.0,30.43,NW,323,1.0,18.0,92,0.00,,,0.00,Wunderground v.1.15,2013-03-13 13:55:00,
2013-03-13 09:00:00,18.4,16.7,30.44,NW,323,1.0,1.0,93,0.00,,,0.00,Wunderground v.1.15,2013-03-13 14:00:00,
2013-03-13 09:10:00,19.4,17.7,30.46,West,269,0.0,18.0,93,0.00,,,0.00,Wunderground v.1.15,2013-03-13 14:10:00,
2013-03-13 09:15:00,19.6,17.4,30.46,West,269,1.0,18.0,91,0.00,,,0.00,Wunderground v.1.15,2013-03-13 14:15:00,
2013-03-13 09:20:00,19.0,16.3,30.46,West,269,2.0,18.0,89,0.00,,,0.00,Wunderground v.1.15,2013-03-13 14:20:00,
2013-03-13 09:25:00,18.5,15.8,30.46,West,268,2.0,18.0,89,0.00,,,0.00,Wunderground v.1.15,2013-03-13 14:25:00,
2013-03-13 09:30:00,18.1,15.4,30.47,West,268,2.0,18.0,89,0.00,,,0.00,Wunderground v.1.15,2013-03-13 14:30:00,
2013-03-13 09:35:00,18.2,15.8,30.47,West,267,2.0,18.0,90,0.00,,,0.00,Wunderground v.1.15,2013-03-13 14:35:00,
2013-03-13 09:40:00,18.6,16.4,30.47,West,266,3.0,3.0,91,0.00,,,0.00,Wunderground v.1.15,2013-03-13 14:40:00,
2013-03-13 09:45:00,19.0,16.8,30.47,West,266,2.0,18.0,91,0.00,,,0.00,Wunderground v.1.15,2013-03-13 14:45:00,
2013-03-13 09:55:00,20.2,18.0,30.48,West,266,2.0,18.0,91,0.00,,,0.00,Wunderground v.1.15,2013-03-13 14:55:00,
2013-03-13 10:05:00,21.7,19.2,30.48,West,266,1.0,18.0,90,0.00,,,0.00,Wunderground v.1.15,2013-03-13 15:05:00,
2013-03-13 10:10:00,22.0,19.3,30.48,West,266,1.0,1.0,89,0.00,,,0.00,Wunderground v.1.15,2013-03-13 15:10:00,
2013-03-13 10:15:00,22.3,19.3,30.48,West,266,1.0,18.0,88,0.00,,,0.00,Wunderground v.1.15,2013-03-13 15:15:00,
2013-03-13 10:20:00,22.8,20.0,30.49,West,266,1.0,18.0,89,0.00,,,0.00,Wunderground v.1.15,2013-03-13 15:20:00,
2013-03-13 10:25:00,23.5,20.5,30.49,West,266,0.0,18.0,88,0.00,,,0.00,Wunderground v.1.15,2013-03-13 15:25:00,
2013-03-13 10:30:00,24.1,20.8,30.49,West,266,0.0,18.0,87,0.00,,,0.00,Wunderground v.1.15,2013-03-13 15:30:00,
2013-03-13 10:35:00,24.7,21.1,30.49,West,266,0.0,18.0,86,0.00,,,0.00,Wunderground v.1.15,2013-03-13 15:35:00,
2013-03-13 10:40:00,25.1,21.2,30.48,West,266,0.0,18.0,85,0.00,,,0.00,Wunderground v.1.15,2013-03-13 15:40:00,
2013-03-13 10:45:00,25.6,21.7,30.48,West,266,0.0,18.0,85,0.00,,,0.00,Wunderground v.1.15,2013-03-13 15:45:00,
2013-03-13 10:50:00,26.2,21.7,30.48,West,266,0.0,18.0,83,0.00,,,0.00,Wunderground v.1.15,2013-03-13 15:50:00,
2013-03-13 11:00:00,27.0,22.2,30.48,West,266,0.0,18.0,82,0.00,,,0.00,Wunderground v.1.15,2013-03-13 16:00:00,
2013-03-13 11:10:00,27.6,22.2,30.48,West,266,1.0,18.0,80,0.00,,,0.00,Wunderground v.1.15,2013-03-13 16:10:00,
2013-03-13 11:15:00,27.7,22.3,30.48,West,266,1.0,18.0,80,0.00,,,0.00,Wunderground v.1.15,2013-03-13 16:15:00,
2013-03-13 11:20:00,28.2,22.8,30.48,West,266,1.0,1.0,80,0.00,,,0.00,Wunderground v.1.15,2013-03-13 16:20:00,
2013-03-13 11:25:00,28.8,23.4,30.48,West,266,0.0,18.0,80,0.00,,,0.00,Wunderground v.1.15,2013-03-13 16:25:00,
2013-03-13 11:30:00,29.5,23.5,30.47,West,266,0.0,18.0,78,0.00,,,0.00,Wunderground v.1.15,2013-03-13 16:30:00,
2013-03-13 11:40:00,29.8,22.2,30.47,SW,227,2.0,18.0,73,0.00,,,0.00,Wunderground v.1.15,2013-03-13 16:40:00,
2013-03-13 11:45:00,29.5,21.6,30.47,SW,225,2.0,18.0,72,0.00,,,0.00,Wunderground v.1.15,2013-03-13 16:45:00,
2013-03-13 11:50:00,29.5,21.6,30.47,SW,225,2.0,18.0,72,0.00,,,0.00,Wunderground v.1.15,2013-03-13 16:50:00,
2013-03-13 12:00:00,29.5,21.6,30.47,SW,216,2.0,18.0,72,0.00,,,0.00,Wunderground v.1.15,2013-03-13 17:00:00,
2013-03-13 12:05:00,29.6,22.6,30.47,SW,217,3.0,18.0,75,0.00,,,0.00,Wunderground v.1.15,2013-03-13 17:05:00,
2013-03-13 12:15:00,30.3,23.0,30.47,SW,217,1.0,18.0,74,0.00,,,0.00,Wunderground v.1.15,2013-03-13 17:15:00,
2013-03-13 12:20:00,30.5,22.5,30.47,SW,216,1.0,18.0,72,0.00,,,0.00,Wunderground v.1.15,2013-03-13 17:20:00,
2013-03-13 12:25:00,30.3,23.0,30.47,SW,217,1.0,18.0,74,0.00,,,0.00,Wunderground v.1.15,2013-03-13 17:25:00,
2013-03-13 12:30:00,30.2,23.5,30.47,SW,217,2.0,18.0,76,0.00,,,0.00,Wunderground v.1.15,2013-03-13 17:30:00,
2013-03-13 12:35:00,30.2,23.5,30.47,SW,217,1.0,18.0,76,0.00,,,0.00,Wunderground v.1.15,2013-03-13 17:35:00,
2013-03-13 12:40:00,30.5,24.1,30.46,SSW,208,1.0,18.0,77,0.00,,,0.00,Wunderground v.1.15,2013-03-13 17:40:00,
2013-03-13 12:50:00,30.7,22.7,30.47,SSE,155,4.0,18.0,72,0.00,,,0.00,Wunderground v.1.15,2013-03-13 17:50:00,
2013-03-13 12:55:00,30.8,22.2,30.47,SE,137,6.0,18.0,70,0.00,,,0.00,Wunderground v.1.15,2013-03-13 17:55:00,
2013-03-13 13:05:00,31.3,23.6,30.46,SE,130,4.0,18.0,73,0.00,,,0.00,Wunderground v.1.15,2013-03-13 18:05:00,
2013-03-13 13:10:00,31.5,22.5,30.46,SE,136,3.0,18.0,69,0.00,,,0.00,Wunderground v.1.15,2013-03-13 18:10:00,
2013-03-13 13:15:00,31.8,22.8,30.46,SE,136,4.0,18.0,69,0.00,,,0.00,Wunderground v.1.15,2013-03-13 18:15:00,
2013-03-13 13:25:00,31.9,23.9,30.45,SE,136,3.0,18.0,72,0.00,,,0.00,Wunderground v.1.15,2013-03-13 18:25:00,
2013-03-13 13:30:00,32.2,24.5,30.45,SE,136,1.0,18.0,73,0.00,,,0.00,Wunderground v.1.15,2013-03-13 18:30:00,
2013-03-13 13:35:00,32.3,24.3,30.44,SE,130,3.0,18.0,72,0.00,,,0.00,Wunderground v.1.15,2013-03-13 18:35:00,
2013-03-13 13:40:00,32.1,23.8,30.44,SE,128,4.0,4.0,71,0.00,,,0.00,Wunderground v.1.15,2013-03-13 18:40:00,
2013-03-13 13:45:00,32.2,24.5,30.44,SE,127,4.0,5.0,73,0.00,,,0.00,Wunderground v.1.15,2013-03-13 18:45:00,
2013-03-13 13:55:00,32.8,24.4,30.43,ESE,121,4.0,6.0,71,0.00,,,0.00,Wunderground v.1.15,2013-03-13 18:55:00,
2013-03-13 14:00:00,32.9,24.5,30.43,ESE,119,5.0,5.0,71,0.00,,,0.00,Wunderground v.1.15,2013-03-13 19:00:00,
2013-03-13 14:10:00,33.5,24.4,30.43,SE,131,4.0,18.0,69,0.00,,,0.00,Wunderground v.1.15,2013-03-13 19:10:00,
2013-03-13 14:15:00,33.8,23.3,30.43,SE,132,3.0,18.0,65,0.00,,,0.00,Wunderground v.1.15,2013-03-13 19:15:00,
2013-03-13 14:20:00,34.0,23.5,30.43,SE,133,3.0,3.0,65,0.00,,,0.00,Wunderground v.1.15,2013-03-13 19:20:00,
2013-03-13 14:30:00,34.2,22.9,30.42,SE,132,6.0,18.0,63,0.00,,,0.00,Wunderground v.1.15,2013-03-13 19:30:00,
2013-03-13 14:35:00,34.4,22.7,30.42,SE,132,5.0,18.0,62,0.00,,,0.00,Wunderground v.1.15,2013-03-13 19:35:00,
2013-03-13 14:40:00,34.9,23.2,30.42,SSE,150,5.0,18.0,62,0.00,,,0.00,Wunderground v.1.15,2013-03-13 19:40:00,
2013-03-13 14:45:00,35.0,22.9,30.41,SSE,148,5.0,18.0,61,0.00,,,0.00,Wunderground v.1.15,2013-03-13 19:45:00,
2013-03-13 14:50:00,35.4,23.3,30.40,SSE,157,6.0,18.0,61,0.00,,,0.00,Wunderground v.1.15,2013-03-13 19:50:00,
2013-03-13 14:55:00,35.6,23.5,30.40,SSE,161,6.0,18.0,61,0.00,,,0.00,Wunderground v.1.15,2013-03-13 19:55:00,
2013-03-13 15:05:00,35.9,23.7,30.40,SE,135,5.0,18.0,61,0.00,,,0.00,Wunderground v.1.15,2013-03-13 20:05:00,
2013-03-13 15:15:00,36.3,23.7,30.39,SSE,148,6.0,18.0,60,0.00,,,0.00,Wunderground v.1.15,2013-03-13 20:15:00,
2013-03-13 15:20:00,36.6,23.6,30.38,SSE,166,7.0,7.0,59,0.00,,,0.00,Wunderground v.1.15,2013-03-13 20:20:00,
2013-03-13 15:25:00,37.3,24.7,30.38,SE,132,7.0,18.0,60,0.00,,,0.00,Wunderground v.1.15,2013-03-13 20:25:00,
2013-03-13 15:30:00,37.4,23.5,30.38,SE,144,7.0,7.0,57,0.00,,,0.00,Wunderground v.1.15,2013-03-13 20:30:00,
2013-03-13 15:40:00,37.6,25.0,30.37,SE,127,6.0,6.0,60,0.00,,,0.00,Wunderground v.1.15,2013-03-13 20:40:00,
2013-03-13 15:45:00,37.8,24.7,30.37,SE,139,7.0,7.0,59,0.00,,,0.00,Wunderground v.1.15,2013-03-13 20:45:00,
2013-03-13 15:50:00,37.9,25.2,30.37,SSE,163,6.0,6.0,60,0.00,,,0.00,Wunderground v.1.15,2013-03-13 20:50:00,
2013-03-13 15:55:00,38.1,25.0,30.38,SE,142,6.0,18.0,59,0.00,,,0.00,Wunderground v.1.15,2013-03-13 20:55:00,
2013-03-13 16:05:00,38.4,24.9,30.37,SE,146,7.0,18.0,58,0.00,,,0.00,Wunderground v.1.15,2013-03-13 21:05:00,
2013-03-13 16:15:00,38.8,25.3,30.37,South,169,7.0,18.0,58,0.00,,,0.00,Wunderground v.1.15,2013-03-13 21:15:00,
2013-03-13 16:20:00,39.1,24.7,30.37,SSE,157,6.0,6.0,56,0.00,,,0.00,Wunderground v.1.15,2013-03-13 21:20:00,
2013-03-13 16:25:00,39.1,24.3,30.37,SSE,156,6.0,7.0,55,0.00,,,0.00,Wunderground v.1.15,2013-03-13 21:25:00,
2013-03-13 16:30:00,39.5,25.1,30.37,SE,139,6.0,6.0,56,0.00,,,0.00,Wunderground v.1.15,2013-03-13 21:30:00,
2013-03-13 16:35:00,39.5,25.5,30.37,ESE,119,6.0,18.0,57,0.00,,,0.00,Wunderground v.1.15,2013-03-13 21:35:00,
2013-03-13 16:45:00,39.9,25.9,30.36,SE,129,6.0,18.0,57,0.00,,,0.00,Wunderground v.1.15,2013-03-13 21:45:00,
2013-03-13 16:50:00,40.1,25.6,30.36,SSE,163,7.0,7.0,56,0.00,,,0.00,Wunderground v.1.15,2013-03-13 21:50:00,
2013-03-13 17:00:00,40.3,25.8,30.36,SE,132,7.0,18.0,56,0.00,,,0.00,Wunderground v.1.15,2013-03-13 22:00:00,
2013-03-13 17:05:00,40.4,25.5,30.36,SE,129,7.0,18.0,55,0.00,,,0.00,Wunderground v.1.15,2013-03-13 22:05:00,
2013-03-13 17:10:00,40.5,26.0,30.36,SE,132,7.0,18.0,56,0.00,,,0.00,Wunderground v.1.15,2013-03-13 22:10:00,
2013-03-13 17:20:00,40.7,25.8,30.36,SE,132,7.0,7.0,55,0.00,,,0.00,Wunderground v.1.15,2013-03-13 22:20:00,
2013-03-13 17:25:00,40.9,26.0,30.35,SE,141,6.0,9.0,55,0.00,,,0.00,Wunderground v.1.15,2013-03-13 22:25:00,
2013-03-13 17:30:00,41.0,25.6,30.34,SSE,156,7.0,18.0,54,0.00,,,0.00,Wunderground v.1.15,2013-03-13 22:30:00,
2013-03-13 17:35:00,41.1,25.3,30.34,SSE,160,8.0,18.0,53,0.00,,,0.00,Wunderground v.1.15,2013-03-13 22:35:00,
2013-03-13 17:40:00,41.3,26.3,30.34,SSE,153,7.0,18.0,55,0.00,,,0.00,Wunderground v.1.15,2013-03-13 22:40:00,
2013-03-13 17:50:00,41.6,26.2,30.34,SE,132,7.0,18.0,54,0.00,,,0.00,Wunderground v.1.15,2013-03-13 22:50:00,
2013-03-13 18:00:00,41.8,26.8,30.33,ESE,120,7.0,18.0,55,0.00,,,0.00,Wunderground v.1.15,2013-03-13 23:00:00,
2013-03-13 18:05:00,41.8,25.9,30.32,SSE,161,8.0,18.0,53,0.00,,,0.00,Wunderground v.1.15,2013-03-13 23:05:00,
2013-03-13 18:10:00,41.9,26.0,30.32,SE,136,9.0,9.0,53,0.00,,,0.00,Wunderground v.1.15,2013-03-13 23:10:00,
2013-03-13 18:15:00,42.0,25.6,30.32,SE,140,8.0,18.0,52,0.00,,,0.00,Wunderground v.1.15,2013-03-13 23:15:00,
2013-03-13 18:20:00,42.2,26.3,30.32,SSE,157,8.0,18.0,53,0.00,,,0.00,Wunderground v.1.15,2013-03-13 23:20:00,
2013-03-13 18:30:00,42.4,26.5,30.31,SE,134,6.0,18.0,53,0.00,,,0.00,Wunderground v.1.15,2013-03-13 23:30:00,
2013-03-13 18:35:00,42.5,26.6,30.31,SE,140,5.0,18.0,53,0.00,,,0.00,Wunderground v.1.15,2013-03-13 23:35:00,
2013-03-13 18:40:00,42.6,25.7,30.31,SE,141,6.0,18.0,51,0.00,,,0.00,Wunderground v.1.15,2013-03-13 23:40:00,
2013-03-13 18:45:00,42.5,25.6,30.30,SE,139,6.0,18.0,51,0.00,,,0.00,Wunderground v.1.15,2013-03-13 23:45:00,
2013-03-13 18:55:00,42.3,28.1,30.30,SE,131,4.0,18.0,57,0.00,,,0.00,Wunderground v.1.15,2013-03-13 23:55:00,
2013-03-13 19:05:00,41.2,28.4,30.30,SE,130,1.0,18.0,60,0.00,,,0.00,Wunderground v.1.15,2013-03-14 00:05:00,
2013-03-13 19:10:00,40.7,28.3,30.30,SE,130,2.0,18.0,61,0.00,,,0.00,Wunderground v.1.15,2013-03-14 00:10:00,
2013-03-13 19:15:00,40.4,28.0,30.30,ESE,107,2.0,18.0,61,0.00,,,0.00,Wunderground v.1.15,2013-03-14 00:15:00,
2013-03-13 19:20:00,39.9,28.3,30.30,ESE,107,3.0,18.0,63,0.00,,,0.00,Wunderground v.1.15,2013-03-14 00:20:00,
2013-03-13 19:25:00,39.6,28.0,30.30,ESE,106,3.0,18.0,63,0.00,,,0.00,Wunderground v.1.15,2013-03-14 00:25:00,
2013-03-13 19:35:00,39.1,28.3,30.30,ESE,106,3.0,18.0,65,0.00,,,0.00,Wunderground v.1.15,2013-03-14 00:35:00,
2013-03-13 19:45:00,38.4,28.0,30.30,ESE,105,3.0,18.0,66,0.00,,,0.00,Wunderground v.1.15,2013-03-14 00:45:00,
2013-03-13 19:50:00,38.2,28.2,30.30,ESE,105,3.0,3.0,67,0.00,,,0.00,Wunderground v.1.15,2013-03-14 00:50:00,
2013-03-13 19:55:00,37.7,28.1,30.30,ESE,105,2.0,18.0,68,0.00,,,0.00,Wunderground v.1.15,2013-03-14 00:55:00,
2013-03-13 20:00:00,37.3,28.1,30.29,ESE,105,1.0,1.0,69,0.00,,,0.00,Wunderground v.1.15,2013-03-14 01:00:00,
2013-03-13 20:10:00,36.6,28.4,30.29,ESE,105,2.0,2.0,72,0.00,,,0.00,Wunderground v.1.15,2013-03-14 01:10:00,
2013-03-13 20:15:00,36.4,28.2,30.29,ESE,105,2.0,18.0,72,0.00,,,0.00,Wunderground v.1.15,2013-03-14 01:15:00,
2013-03-13 20:20:00,36.1,28.3,30.29,ESE,106,2.0,18.0,73,0.00,,,0.00,Wunderground v.1.15,2013-03-14 01:20:00,
2013-03-13 20:25:00,36.0,28.2,30.29,ESE,106,2.0,18.0,73,0.00,,,0.00,Wunderground v.1.15,2013-03-14 01:25:00,
2013-03-13 20:35:00,35.8,28.3,30.28,ESE,114,3.0,18.0,74,0.00,,,0.00,Wunderground v.1.15,2013-03-14 01:35:00,
2013-03-13 20:45:00,36.0,28.2,30.28,ESE,110,4.0,4.0,73,0.00,,,0.00,Wunderground v.1.15,2013-03-14 01:45:00,
2013-03-13 20:50:00,35.9,28.1,30.28,ESE,110,3.0,3.0,73,0.00,,,0.00,Wunderground v.1.15,2013-03-14 01:50:00,
2013-03-13 20:55:00,35.9,27.7,30.28,ESE,110,2.0,18.0,72,0.00,,,0.00,Wunderground v.1.15,2013-03-14 01:55:00,
2013-03-13 21:00:00,35.9,27.7,30.28,ESE,110,2.0,18.0,72,0.00,,,0.00,Wunderground v.1.15,2013-03-14 02:00:00,
2013-03-13 21:05:00,35.9,27.7,30.27,ESE,110,3.0,18.0,72,0.00,,,0.00,Wunderground v.1.15,2013-03-14 02:05:00,
2013-03-13 21:10:00,36.2,27.4,30.27,ESE,119,5.0,18.0,70,0.00,,,0.00,Wunderground v.1.15,2013-03-14 02:10:00,
2013-03-13 21:20:00,37.0,27.1,30.28,ESE,119,6.0,18.0,67,0.00,,,0.00,Wunderground v.1.15,2013-03-14 02:20:00,
2013-03-13 21:25:00,37.2,26.9,30.27,ESE,119,6.0,18.0,66,0.00,,,0.00,Wunderground v.1.15,2013-03-14 02:25:00,
2013-03-13 21:30:00,37.3,26.6,30.27,SE,146,6.0,18.0,65,0.00,,,0.00,Wunderground v.1.15,2013-03-14 02:30:00,
2013-03-13 21:40:00,37.5,26.4,30.27,SE,131,6.0,18.0,64,0.00,,,0.00,Wunderground v.1.15,2013-03-14 02:40:00,
2013-03-13 21:45:00,37.6,26.1,30.28,SE,130,6.0,18.0,63,0.00,,,0.00,Wunderground v.1.15,2013-03-14 02:45:00,
2013-03-13 21:55:00,37.6,26.1,30.27,SE,131,5.0,18.0,63,0.00,,,0.00,Wunderground v.1.15,2013-03-14 02:55:00,
2013-03-13 22:00:00,37.7,25.8,30.27,SSE,150,5.0,18.0,62,0.00,,,0.00,Wunderground v.1.15,2013-03-14 03:00:00,
2013-03-13 22:05:00,38.0,25.7,30.27,SSE,157,6.0,18.0,61,0.00,,,0.00,Wunderground v.1.15,2013-03-14 03:05:00,
2013-03-13 22:10:00,38.2,25.5,30.27,SSE,153,7.0,18.0,60,0.00,,,0.00,Wunderground v.1.15,2013-03-14 03:10:00,
2013-03-13 22:15:00,38.3,25.6,30.27,SE,139,7.0,18.0,60,0.00,,,0.00,Wunderground v.1.15,2013-03-14 03:15:00,
2013-03-13 22:25:00,38.2,25.1,30.27,SE,145,8.0,18.0,59,0.00,,,0.00,Wunderground v.1.15,2013-03-14 03:25:00,
2013-03-13 22:35:00,38.0,24.9,30.26,SE,146,8.0,18.0,59,0.00,,,0.00,Wunderground v.1.15,2013-03-14 03:35:00,
2013-03-13 22:40:00,38.0,24.9,30.26,SE,145,8.0,18.0,59,0.00,,,0.00,Wunderground v.1.15,2013-03-14 03:40:00,
2013-03-13 22:45:00,37.9,24.8,30.26,SE,141,8.0,18.0,59,0.00,,,0.00,Wunderground v.1.15,2013-03-14 03:45:00,
2013-03-13 22:50:00,37.9,24.4,30.26,SSE,157,9.0,9.0,58,0.00,,,0.00,Wunderground v.1.15,2013-03-14 03:50:00,
2013-03-13 23:00:00,37.8,24.3,30.26,SSE,152,9.0,18.0,58,0.00,,,0.00,Wunderground v.1.15,2013-03-14 04:00:00,
2013-03-13 23:05:00,37.7,24.2,30.26,SE,144,9.0,18.0,58,0.00,,,0.00,Wunderground v.1.15,2013-03-14 04:05:00,
2013-03-13 23:10:00,37.8,23.9,30.25,SSE,157,9.0,18.0,57,0.00,,,0.00,Wunderground v.1.15,2013-03-14 04:10:00,
2013-03-13 23:15:00,37.8,23.9,30.26,SSE,153,10.0,18.0,57,0.00,,,0.00,Wunderground v.1.15,2013-03-14 04:15:00,
2013-03-13 23:20:00,37.9,23.6,30.25,South,171,10.0,18.0,56,0.00,,,0.00,Wunderground v.1.15,2013-03-14 04:20:00,
2013-03-13 23:25:00,38.0,23.7,30.26,SSE,154,10.0,18.0,56,0.00,,,0.00,Wunderground v.1.15,2013-03-14 04:25:00,
2013-03-13 23:30:00,38.0,23.3,30.26,SE,136,10.0,18.0,55,0.00,,,0.00,Wunderground v.1.15,2013-03-14 04:30:00,
2013-03-13 23:40:00,38.1,23.3,30.25,SE,144,10.0,10.0,55,0.00,,,0.00,Wunderground v.1.15,2013-03-14 04:40:00,
2013-03-13 23:45:00,37.9,23.6,30.25,South,172,10.0,18.0,56,0.00,,,0.00,Wunderground v.1.15,2013-03-14 04:45:00,
2013-03-13 23:50:00,37.9,23.6,30.25,SE,132,10.0,10.0,56,0.00,,,0.00,Wunderground v.1.15,2013-03-14 04:50:00,
2013-03-13 23:55:00,37.9,23.6,30.25,SSE,156,11.0,11.0,56,0.00,,,0.00,Wunderground v.1.15,2013-03-14 04:55:00,